Вернуться в каталог

CZ-4B DEB

АктивенLEO
NORAD 46471·DEBRIS·🇨🇳 China

Запущен Sep 21, 2020 с Jiuquan Satellite Launch Center

Loading…

Ближайшие Пролёты (ближайшие 24 часа)

TLE

СвежийSource: Space-Track

Эпоха: Sep 14, 2026, 12:47 UTC

1 46471U 20066C   26257.53311713  .00000019  00000-0  81905-4 0  9999
2 46471  66.0782 318.7622 0026414 145.6931 214.5853 13.89488775303361

Отслеживайте CZ-4B DEB в реальном времени с AllMySat

Download on the App Store